Los Alamos, NM

8:03 AM MST on January 22, 2018 (GMT -0700)
Los Alamos

Weather History for KLAM - July, 2013

Change the Weather History Date:

Sunday, July 14, 2013

  Actual Average Record
Temperature  
Mean Temperature 76 °F -  
Max Temperature 87 °F 81 °F 90 °F (1948)
Min Temperature 64 °F 54 °F 45 °F (1976)
Cooling Degree Days 10    
Growing Degree Days 26 (Base 50)    
Moisture  
Dew Point 52 °F    
Average Humidity 50    
Maximum Humidity 70    
Minimum Humidity 24    
Precipitation  
Precipitation 0.02 in - - ()
Sea Level Pressure  
Sea Level Pressure 30.28 in    
Wind  
Wind Speed 6 mph (NW)    
Max Wind Speed 18 mph    
Max Gust Speed 33 mph    
Visibility 10 miles    
Events Rain    
Averages and records for this station are not official NWS values.
T = Trace of Precipitation, MM = Missing Value Source: NWS Daily Summary

Daily Weather History Graph

Daily Weather History Graph

Search for Another Location

Airport or City:

Trip Planner

Search our weather history database for the weather conditions in past years. The results will help you decide how hot, cold, wet, or windy it might be!

Date:

Astronomy

Jul. 14, 2013 Rise Set
Actual Time 5:59 AM MDT 8:21 PM MDT
Civil Twilight 5:30 AM MDT 8:51 PM MDT
Nautical Twilight 4:54 AM MDT 9:27 PM MDT
Astronomical Twilight 4:14 AM MDT 10:07 PM MDT
Moon 12:05 PM MDT (7/14) 11:50 PM MDT (7/14)
Length of Visible Light 15h 21m
Length of Day
14h 22m
Waxing Crescent, 35% of the Moon is Illuminated
Jul 14
Waxing Crescent
Jul 15
First Quarter
Jul 22
Full
Jul 29
Last Quarter
Aug 6
New

Hourly Weather History & Observations

Time (MDT) Temp. Dew Point Humidity Pressure Visibility Wind Dir Wind Speed Gust Speed Precip Events Conditions
12:15 AM 66.0 °F 55.6 °F 69% 30.34 in 10.0 mi South 4.6 mph - N/A   Clear
12:35 AM 66.7 °F 54.5 °F 65% 30.34 in 10.0 mi SSW 5.8 mph - N/A   Clear
12:55 AM 66.7 °F 54.3 °F 64% 30.34 in 10.0 mi WSW 8.1 mph - N/A   Mostly Cloudy
1:15 AM 67.3 °F 54.9 °F 64% 30.34 in 10.0 mi WSW 8.1 mph - N/A   Overcast
1:35 AM 68.4 °F 53.8 °F 60% 30.33 in 10.0 mi West 8.1 mph - N/A   Overcast
1:55 AM 67.6 °F 53.8 °F 61% 30.32 in 10.0 mi West 5.8 mph - N/A   Mostly Cloudy
2:15 AM 67.5 °F 52.2 °F 58% 30.31 in 10.0 mi West 4.6 mph - N/A   Scattered Clouds
2:35 AM 68.7 °F 50.4 °F 52% 30.31 in 10.0 mi West 3.5 mph - N/A   Clear
2:55 AM 67.8 °F 50.5 °F 54% 30.31 in 10.0 mi Calm Calm - N/A   Clear
3:15 AM 66.7 °F 51.8 °F 59% 30.31 in 10.0 mi Calm Calm - N/A   Clear
3:35 AM 67.5 °F 50.4 °F 54% 30.31 in 10.0 mi NW 5.8 mph - N/A   Clear
3:55 AM 67.6 °F 49.8 °F 53% 30.31 in 10.0 mi NW 5.8 mph - N/A   Clear
4:15 AM 68.0 °F 49.8 °F 52% 30.31 in 10.0 mi North 5.8 mph - N/A   Mostly Cloudy
4:35 AM 67.1 °F 50.2 °F 55% 30.31 in 10.0 mi NNW 10.4 mph - N/A   Mostly Cloudy
4:55 AM 66.9 °F 50.4 °F 55% 30.31 in 10.0 mi North 10.4 mph - N/A   Scattered Clouds
5:15 AM 66.4 °F 50.9 °F 57% 30.31 in 10.0 mi NNW 9.2 mph - N/A   Clear
5:35 AM 66.6 °F 50.9 °F 57% 30.31 in 10.0 mi North 4.6 mph - N/A   Scattered Clouds
5:55 AM 65.8 °F 50.9 °F 58% 30.31 in 10.0 mi North 3.5 mph - N/A   Scattered Clouds
6:15 AM 66.2 °F 50.9 °F 58% 30.31 in 10.0 mi NNW 5.8 mph - N/A   Clear
6:35 AM 66.4 °F 50.5 °F 57% 30.32 in 10.0 mi North 9.2 mph - N/A   Clear
6:55 AM 66.6 °F 50.9 °F 57% 30.32 in 10.0 mi NE 5.8 mph - N/A   Clear
7:15 AM 66.4 °F 52.2 °F 60% 30.33 in 10.0 mi Calm Calm - N/A   Clear
7:35 AM 65.3 °F 52.7 °F 64% 30.33 in 10.0 mi Calm Calm - N/A   Mostly Cloudy
7:55 AM 65.5 °F 53.4 °F 65% 30.33 in 10.0 mi Calm Calm - N/A   Overcast
8:15 AM 65.8 °F 54.3 °F 66% 30.33 in 10.0 mi Calm Calm - N/A   Scattered Clouds
8:35 AM 67.3 °F 53.8 °F 62% 30.33 in 10.0 mi North 4.6 mph - N/A   Clear
8:55 AM 69.6 °F 54.1 °F 58% 30.33 in 10.0 mi North 6.9 mph - N/A   Scattered Clouds
9:15 AM 71.6 °F 54.1 °F 54% 30.33 in 10.0 mi NE 4.6 mph - N/A   Clear
9:35 AM 73.4 °F 53.8 °F 50% 30.32 in 10.0 mi North 4.6 mph - N/A   Clear
9:55 AM 73.0 °F 52.9 °F 49% 30.32 in 10.0 mi Calm Calm - N/A   Clear
10:15 AM 74.7 °F 52.7 °F 46% 30.32 in 10.0 mi ENE 6.9 mph - N/A   Clear
10:35 AM 75.9 °F 52.7 °F 44% 30.32 in 10.0 mi North 4.6 mph - N/A   Clear
10:55 AM 78.3 °F 52.3 °F 40% 30.31 in 10.0 mi NNW 6.9 mph - N/A   Clear
11:15 AM 78.4 °F 50.7 °F 38% 30.31 in 10.0 mi NNE 6.9 mph 17.3 mph N/A   Clear
11:35 AM 80.2 °F 50.2 °F 35% 30.30 in 10.0 mi NE 8.1 mph - N/A   Clear
11:55 AM 80.8 °F 49.5 °F 33% 30.30 in 10.0 mi North 4.6 mph - N/A   Clear
12:15 PM 82.4 °F 49.5 °F 32% 30.28 in 10.0 mi NNE 8.1 mph - N/A   Clear
12:35 PM 84.2 °F 48.2 °F 29% 30.27 in 10.0 mi ENE 8.1 mph - N/A   Clear
12:55 PM 84.7 °F 47.1 °F 27% 30.26 in 10.0 mi ENE 6.9 mph - N/A   Clear
1:15 PM 85.1 °F 47.1 °F 27% 30.26 in 10.0 mi NNW 10.4 mph - N/A   Clear
1:35 PM 84.0 °F 46.9 °F 27% 30.25 in 10.0 mi East 5.8 mph - N/A   Clear
1:55 PM 82.8 °F 50.2 °F 32% 30.24 in 10.0 mi West 8.1 mph 17.3 mph N/A   Scattered Clouds
2:15 PM 84.2 °F 49.1 °F 29% 30.23 in 10.0 mi West 12.7 mph 19.6 mph N/A   Scattered Clouds
2:35 PM 86.0 °F 48.6 °F 27% 30.22 in 10.0 mi West 10.4 mph 17.3 mph N/A   Scattered Clouds
2:55 PM 86.4 °F 47.3 °F 26% 30.20 in 10.0 mi West 8.1 mph 18.4 mph N/A   Clear
3:15 PM 86.2 °F 47.3 °F 26% 30.20 in 10.0 mi WSW 5.8 mph - N/A   Clear
3:35 PM 87.3 °F 48.0 °F 26% 30.19 in 10.0 mi West 10.4 mph 19.6 mph N/A   Clear
3:55 PM 87.4 °F 46.9 °F 24% 30.18 in 10.0 mi WSW 15.0 mph 21.9 mph N/A   Scattered Clouds
4:15 PM 77.0 °F 52.5 °F 42% 30.19 in 10.0 mi WNW 15.0 mph 33.4 mph N/A Rain Light Rain
4:35 PM 76.5 °F 46.4 °F 34% 30.20 in 10.0 mi West 11.5 mph 27.6 mph N/A Rain Light Rain
4:55 PM 75.9 °F 52.3 °F 44% 30.20 in 10.0 mi West 13.8 mph - N/A Rain Light Rain
5:15 PM 75.7 °F 52.2 °F 44% 30.20 in 10.0 mi WSW 17.3 mph 24.2 mph N/A Rain Light Rain
5:35 PM 74.3 °F 52.0 °F 46% 30.20 in 10.0 mi North 9.2 mph - 0.01 in Rain Light Rain
5:55 PM 72.7 °F 53.1 °F 50% 30.20 in 10.0 mi NNW 9.2 mph 20.7 mph 0.02 in Rain Light Rain
6:15 PM 73.4 °F 53.4 °F 49% 30.19 in 10.0 mi North 5.8 mph - N/A Rain Rain
6:35 PM 72.5 °F 56.8 °F 58% 30.20 in 10.0 mi Calm Calm - N/A   Scattered Clouds
6:55 PM 72.7 °F 57.0 °F 58% 30.21 in 10.0 mi NNW 3.5 mph - N/A   Clear
7:15 PM 74.3 °F 53.8 °F 49% 30.23 in 10.0 mi NNE 6.9 mph 17.3 mph N/A   Scattered Clouds
7:35 PM 72.0 °F 54.9 °F 55% 30.25 in 10.0 mi North 11.5 mph - N/A   Mostly Cloudy
7:55 PM 71.6 °F 52.7 °F 51% 30.25 in 10.0 mi NE 18.4 mph 23.0 mph N/A   Scattered Clouds
8:15 PM 70.7 °F 53.1 °F 54% 30.26 in 10.0 mi North 8.1 mph 18.4 mph N/A   Clear
8:35 PM 70.0 °F 52.9 °F 55% 30.27 in 10.0 mi North 8.1 mph 17.3 mph N/A   Clear
8:55 PM 69.1 °F 52.7 °F 56% 30.27 in 10.0 mi NW 6.9 mph - N/A   Clear
9:15 PM 68.4 °F 52.7 °F 57% 30.28 in 10.0 mi NNW 9.2 mph - N/A   Mostly Cloudy
9:35 PM 68.0 °F 52.9 °F 58% 30.29 in 10.0 mi WNW 6.9 mph - N/A   Mostly Cloudy
9:55 PM 68.2 °F 52.5 °F 57% 30.30 in 10.0 mi WNW 6.9 mph - N/A   Overcast
10:15 PM 67.6 °F 53.6 °F 61% 30.31 in 10.0 mi South 3.5 mph - N/A   Overcast
10:35 PM 66.4 °F 55.0 °F 67% 30.32 in 10.0 mi South 12.7 mph - N/A   Overcast
10:55 PM 65.8 °F 54.7 °F 67% 30.33 in 10.0 mi SSW 13.8 mph 17.3 mph N/A   Overcast
11:15 PM 65.3 °F 54.1 °F 67% 30.33 in 10.0 mi SSW 10.4 mph 20.7 mph N/A   Light Drizzle
11:35 PM 64.9 °F 54.1 °F 68% 30.33 in 10.0 mi South 9.2 mph - N/A   Overcast
11:55 PM 64.4 °F 54.3 °F 70% 30.33 in 10.0 mi SSW 10.4 mph - N/A   Light Drizzle